Preview of NWS' New Version of Forecast
This preview is not operational and should not be used for support decisions.

Regional Weather Roundup (RWR)

Issued by National Weather Service (NWS)

                            
000
ASUS46 KPQR 250410
RWROR 

OREGON REGIONAL WEATHER ROUNDUP
NATIONAL WEATHER SERVICE PORTLAND OR
900 PM PDT MON JUN 24 2019

NOTE: "FAIR" INDICATES FEW OR NO CLOUDS BELOW 12,000 FEET WITH
NO SIGNIFICANT WEATHER AND/OR OBSTRUCTIONS TO VISIBILITY.

ORZ001>013-250500-
NORTHWEST OREGON

  
CITY           SKY/WX    TMP DP  RH WIND       PRES   REMARKS
ASTORIA        PTCLDY    58  48  69 NW7       29.94F                  
TILLAMOOK      CLEAR     55  48  76 CALM      29.97F                  
NEWPORT        PTCLDY    54  50  87 CALM      29.99F                  
PORTLAND       PTCLDY    67  45  45 W6        29.91F                  
VANCOUVER WA   PTCLDY    66  45  46 CALM      29.91F                  
SCAPPOOSE      PTCLDY    62  47  57 W3        29.91S                  
HILLSBORO      PTCLDY    64  46  52 NE3       29.92S                  
AURORA         PTCLDY    65  47  52 N7        29.92S                  
MCMINNVILLE    PTCLDY    65  49  56 N5        29.90F                  
SALEM          MOCLDY    66  43  43 N7        29.90S                  
CORVALLIS      PTCLDY    64  47  53 NW17      29.92S                  
EUGENE         MOCLDY    68  47  46 W9        29.91S                  
$$

ORZ021-028-250500-
SOUTHWEST OREGON

  
CITY           SKY/WX    TMP DP  RH WIND       PRES   REMARKS
NORTH BEND     PTCLDY    55  50  83 NW6       29.99F                  
BROOKINGS      CLEAR     53  47  79 VRB5      29.96S                  
ROSEBURG       PTCLDY    69  37  30 NW7       29.91S                  
SEXTON SUMMIT  PTCLDY    54  33  45 NW7       29.97S                  
GRANTS PASS    NOT AVBL                                               
MEDFORD        PTCLDY    72  44  36 N9        29.87R                  
$$

ORZ014>016-041-250500-
COLUMBIA GORGE

  
CITY           SKY/WX    TMP DP  RH WIND       PRES   REMARKS
TROUTDALE      PTCLDY    65  48  54 CALM      29.91F                  
HOOD RIVER     MOCLDY    63  43  48 CALM      29.89S                  
THE DALLES     MOCLDY    67  36  31 NW12      29.85S                  
$$

ORZ029>031-041-044-049-050-061>064-502-503-505>511-250500-
EASTERN OREGON

  
CITY           SKY/WX    TMP DP  RH WIND       PRES   REMARKS
MADRAS         CLOUDY    61  37  41 NW5       29.92S                  
REDMOND        CLOUDY    64  28  25 NW9       29.91R                  
BEND           MOCLDY    63  25  23 NW7       29.92S                  
PRINEVILLE     NOT AVBL                                               
KLAMATH FALLS  CLOUDY    64  37  36 W6        29.94R                  
LAKEVIEW       CLOUDY    60  34  37 NW6       29.95R                  
HERMISTON      MOCLDY    68  36  30 SE5       29.80S                  
PENDLETON      MOCLDY    67  27  22 CALM      29.83F                  
JOHN DAY       CLEAR     64  34  33 CALM      29.89R                  
MEACHAM        MOCLDY    54  37  52 CALM      29.92S                  
LA GRANDE      MOCLDY    60  43  53 NW8       29.88S                  
BAKER CITY     PTCLDY    57  44  62 W8        29.88S                  
BURNS          MOCLDY    65  34  31 N6        29.88R                  
ROME             N/A     68  35  29 NE7       29.85R                  
ONTARIO        PTCLDY    73  43  33 N3        29.81S                  
$$